User: anonymous   Login
Location: Unspecified
(0.0000°N, 0.0000°E)
Time: 13:39:03
(UTC+02:00)
Language:

ARIANE 5 R/B - Orbit

View from above orbital plane
View from above orbital plane
View from above satellite
View from above satellite

Ground track
Ground track

The orbit data is extracted from the following two-line orbital elements,

1 28886U 05041C   15111.05780198 -.00000016  00000-0  16248-2 0  9990
2 28886 008.0477 302.6300 7184593 231.5140 354.5344 02.24318279 78031
Epoch (UTC): 21 April 2015 01:23:14
Eccentricity: 0.7184593
inclination: 8.0477°
perigee height: 562 km
apogee height: 35982 km
right ascension of ascending node: 302.6300°
argument of perigee: 231.5140°
revolutions per day: 2.24318279
mean anomaly at epoch: 354.5344°
orbit number at epoch: 7803

The dashed part of the orbit path shows where the satellite is in the earth's shadow,  

DLR